period_start,C,m1,H,J0,J1,J2,J3,J4,J5,JA,JB,JC,JD,JJ,JK,JN,#
2013-11-30 00:00:29,0.04,5.69,0.00,22.33,23.29,26.75,5.88,30.54,999.03,2055.00,1904.81,2081.00,2220.01,350.04,319.58,34.62,0000 0000 0000 0000 000000
2013-11-30 00:01:29,0.05,5.69,0.00,22.33,23.29,26.74,5.92,30.63,999.04,2055.00,1904.42,2081.00,2220.00,350.01,318.76,34.63,0000 0000 0000 0000 000000
2013-11-30 00:02:29,0.13,5.69,0.00,22.28,23.29,26.75,5.81,30.58,999.03,2055.00,1904.18,2081.00,2219.97,349.39,318.55,34.63,0000 0000 0000 0000 000000
2013-11-30 00:03:30,0.09,5.69,0.00,22.22,23.29,26.74,5.83,30.50,999.04,2055.01,1904.08,2081.00,2219.97,349.46,319.06,34.64,0000 0000 0000 0000 000000
2013-11-30 00:04:30,0.04,5.69,0.00,22.29,23.29,26.72,6.05,30.79,999.04,2055.00,1904.02,2080.97,2219.95,351.01,320.46,34.65,0000 0000 0000 0000 000000
2013-11-30 00:05:30,0.04,5.69,0.00,22.27,23.29,26.75,6.02,30.67,999.04,2055.00,1904.00,2080.89,2219.83,350.43,319.54,34.65,0000 0000 0000 0000 000000
2013-11-30 00:06:30,0.09,5.69,0.00,22.28,23.29,26.76,5.86,30.54,999.04,2055.00,1903.99,2080.63,2219.45,350.62,319.85,34.66,0000 0000 0000 0000 000000
2013-11-30 00:07:31,0.20,5.69,0.00,22.28,23.29,26.77,5.92,30.83,999.04,2055.01,1903.92,2080.28,2219.19,350.32,319.06,34.66,0000 0000 0000 0000 000000
2013-11-30 00:08:31,0.24,5.70,0.00,22.31,23.29,26.74,5.95,30.38,999.04,2055.00,1903.63,2080.15,2219.07,349.76,318.89,34.67,0000 0000 0000 0000 000000
2013-11-30 00:09:31,0.18,5.70,0.00,22.32,23.29,26.78,5.94,30.58,999.04,2055.00,1903.30,2080.06,2219.02,349.86,318.97,34.68,0000 0000 0000 0000 000000
2013-11-30 00:10:32,0.16,5.70,0.00,22.29,23.29,26.80,5.94,30.63,999.04,2055.00,1903.12,2080.02,2219.01,350.01,318.58,34.68,0000 0000 0000 0000 000000
2013-11-30 00:11:32,0.08,5.70,0.00,22.32,23.29,26.73,5.85,30.63,999.04,2055.02,1903.04,2080.00,2219.00,350.37,319.44,34.69,0000 0000 0000 0000 000000
2013-11-30 00:12:32,0.04,5.70,0.00,22.31,23.29,26.73,5.93,30.38,999.04,2055.03,1903.01,2080.00,2218.98,350.17,319.27,34.69,0000 0000 0000 0000 000000
2013-11-30 00:13:33,0.02,5.70,0.00,22.28,23.29,26.74,5.93,30.42,999.04,2055.05,1902.99,2079.99,2218.96,349.51,318.67,34.70,0000 0000 0000 0000 000000
2013-11-30 00:14:33,0.03,5.70,0.00,22.29,23.29,26.75,6.03,30.42,999.04,2055.02,1902.94,2079.93,2218.88,351.32,320.34,34.70,0000 0000 0000 0000 000000
2013-11-30 00:15:33,0.08,5.70,0.00,22.35,23.29,26.77,5.75,30.25,999.04,2055.02,1902.62,2079.71,2218.57,349.28,318.41,34.71,0000 0000 0000 0000 000000
2013-11-30 00:16:34,0.23,5.70,0.00,22.32,23.29,26.76,5.99,30.63,999.04,2055.03,1902.27,2079.37,2218.26,350.19,318.96,34.72,0000 0000 0000 0000 000000
2013-11-30 00:17:34,0.35,5.70,0.00,22.32,23.29,26.72,5.97,30.54,999.04,2055.02,1902.11,2079.16,2218.11,350.32,319.39,34.72,0000 0000 0000 0000 000000
2013-11-30 00:18:34,0.16,5.70,0.00,22.30,23.29,26.80,5.96,30.54,999.04,2055.01,1902.04,2079.07,2218.04,350.69,319.87,34.73,0000 0000 0000 0000 000000
2013-11-30 00:19:34,0.07,5.70,0.00,22.28,23.29,26.76,6.03,30.75,999.03,2055.01,1902.01,2079.03,2218.01,349.91,319.05,34.73,0000 0000 0000 0000 000000
2013-11-30 00:20:35,0.03,5.70,0.00,22.21,23.29,26.72,5.83,30.58,999.03,2055.01,1902.00,2079.01,2218.00,350.04,319.43,34.74,0000 0000 0000 0000 000000
2013-11-30 00:21:35,0.02,5.70,0.00,22.21,23.29,26.75,5.78,30.33,999.04,2055.01,1901.93,2079.00,2218.00,349.95,319.17,34.75,0000 0000 0000 0000 000000
2013-11-30 00:22:35,0.02,5.70,0.00,22.26,23.29,26.73,5.96,30.25,999.04,2055.00,1901.63,2078.99,2217.97,350.49,319.50,34.75,0000 0000 0000 0000 000000
2013-11-30 00:23:35,0.11,5.71,0.00,22.27,23.29,26.77,5.84,30.29,999.04,2055.00,1901.26,2078.97,2217.82,350.10,319.24,34.76,0000 0000 0000 0000 000000
2013-11-30 00:24:36,0.19,5.71,0.00,22.24,23.29,26.78,5.94,30.42,999.04,2055.01,1901.09,2078.74,2217.46,349.81,319.01,34.76,0000 0000 0000 0000 000000
2013-11-30 00:25:36,0.26,5.71,0.00,22.27,23.29,26.78,5.84,30.54,999.03,2055.01,1901.03,2078.33,2217.19,349.53,319.22,34.77,0000 0000 0000 0000 000000
2013-11-30 00:26:37,0.24,5.71,0.00,22.28,23.29,26.79,5.90,30.79,999.04,2055.01,1901.01,2078.14,2217.07,350.06,319.29,34.77,0000 0000 0000 0000 000000
2013-11-30 00:27:37,0.12,5.71,0.00,22.26,23.29,26.75,5.69,30.42,999.04,2055.00,1900.89,2078.05,2217.02,348.69,317.97,34.78,0000 0000 0000 0000 000000
2013-11-30 00:28:37,0.11,5.71,0.00,22.25,23.29,26.74,5.80,30.33,999.04,2055.02,1900.47,2078.01,2217.01,349.57,318.77,34.79,0000 0000 0000 0000 000000
2013-11-30 00:29:38,0.14,5.71,0.00,22.26,23.29,26.74,5.96,30.42,999.04,2055.01,1900.21,2078.00,2217.00,350.62,319.54,34.79,0000 0000 0000 0000 000000
2013-11-30 00:30:38,0.09,5.71,0.00,22.27,23.29,26.75,5.88,30.42,999.04,2055.01,1900.10,2077.99,2216.99,349.95,319.11,34.80,0000 0000 0000 0000 000000
2013-11-30 00:31:38,0.05,5.71,0.00,22.23,23.29,26.77,5.85,30.33,999.04,2055.03,1900.04,2077.96,2216.82,350.08,319.27,34.80,0000 0000 0000 0000 000000
2013-11-30 00:32:38,0.09,5.71,0.00,22.25,23.29,26.77,5.74,30.42,999.04,2055.05,1900.01,2077.94,2216.46,350.32,319.97,34.81,0000 0000 0000 0000 000000
2013-11-30 00:33:39,0.13,5.71,0.00,22.26,23.29,26.75,5.82,30.54,999.04,2055.03,1900.00,2077.71,2216.20,350.44,319.70,34.82,0000 0000 0000 0000 000000
2013-11-30 00:34:39,0.14,5.71,0.00,22.18,23.29,26.72,5.83,30.50,999.02,2055.02,1899.95,2077.36,2216.08,349.76,319.53,34.82,0000 0000 0000 0000 000000
2013-11-30 00:35:39,0.17,5.72,0.00,22.17,23.29,26.72,5.96,30.75,999.02,2055.02,1899.68,2077.15,2216.03,350.15,319.39,34.83,0000 0000 0000 0000 000000
2013-11-30 00:36:40,0.21,5.72,0.00,22.22,23.29,26.73,5.88,30.38,999.02,2055.02,1899.29,2077.05,2216.01,349.66,318.77,34.83,0000 0000 0000 0000 000000
2013-11-30 00:37:40,0.17,5.72,0.00,22.24,23.29,26.75,6.00,30.50,999.01,2055.02,1899.11,2077.02,2216.00,350.72,319.83,34.84,0000 0000 0000 0000 000000
2013-11-30 00:38:40,0.09,5.72,0.00,22.22,23.29,26.73,5.90,30.38,999.03,2055.02,1899.02,2076.99,2215.89,349.80,319.18,34.85,0000 0000 0000 0000 000000
2013-11-30 00:39:41,0.07,5.72,0.00,22.21,23.29,26.72,5.88,30.21,999.04,2055.01,1898.97,2076.96,2215.49,350.71,320.02,34.85,0000 0000 0000 0000 000000
2013-11-30 00:40:41,0.11,5.72,0.00,22.28,23.29,26.74,5.78,30.21,999.04,2055.00,1898.73,2076.80,2215.19,349.08,318.30,34.86,0000 0000 0000 0000 000000
2013-11-30 00:41:41,0.24,5.72,0.00,22.34,23.29,26.73,5.85,30.50,999.03,2055.01,1898.32,2076.42,2215.07,349.73,319.10,34.86,0000 0000 0000 0000 000000
2013-11-30 00:42:41,0.31,5.72,0.00,22.32,23.29,26.74,5.93,30.38,999.02,2055.01,1898.12,2076.16,2215.02,350.41,319.68,34.87,0000 0000 0000 0000 000000
2013-11-30 00:43:42,0.19,5.72,0.00,22.29,23.29,26.73,6.07,30.58,999.04,2055.01,1898.04,2076.05,2215.00,351.03,320.06,34.87,0000 0000 0000 0000 000000
2013-11-30 00:44:42,0.09,5.72,0.00,22.28,23.29,26.73,5.89,30.54,999.04,2055.02,1898.00,2076.02,2214.99,350.15,319.37,34.88,0000 0000 0000 0000 000000
2013-11-30 00:45:42,0.03,5.72,0.00,22.22,23.29,26.75,5.88,30.50,999.02,2055.01,1897.97,2076.00,2214.96,350.04,319.24,34.89,0000 0000 0000 0000 000000
2013-11-30 00:46:42,0.01,5.73,0.00,22.16,23.29,26.73,5.95,30.42,999.02,2055.00,1897.85,2076.00,2214.76,350.51,319.74,34.89,0000 0000 0000 0000 000000
2013-11-30 00:47:43,0.11,5.73,0.00,22.18,23.29,26.75,5.91,30.71,999.04,2055.00,1897.42,2075.99,2214.35,348.65,318.01,34.90,0000 0000 0000 0000 000000
2013-11-30 00:48:43,0.21,5.73,0.00,22.18,23.29,26.74,5.84,30.42,999.04,2055.00,1897.17,2075.88,2214.15,350.28,319.50,34.90,0000 0000 0000 0000 000000
2013-11-30 00:49:43,0.20,5.73,0.00,22.19,23.29,26.73,5.70,30.33,999.04,2055.01,1897.06,2075.60,2214.07,348.96,318.29,34.91,0000 0000 0000 0000 000000
2013-11-30 00:50:43,0.19,5.73,0.00,22.16,23.29,26.74,5.98,30.46,999.03,2055.00,1897.02,2075.26,2214.02,350.91,320.09,34.92,0000 0000 0000 0000 000000
2013-11-30 00:51:43,0.16,5.73,0.00,22.16,23.29,26.74,5.91,30.58,999.03,2055.00,1896.97,2075.11,2214.01,351.23,320.17,34.92,0000 0000 0000 0000 000000
2013-11-30 00:52:44,0.10,5.73,0.00,22.21,23.29,26.75,5.98,30.38,999.02,2055.02,1896.63,2075.04,2213.99,350.68,319.83,34.93,0000 0000 0000 0000 000000
2013-11-30 00:53:44,0.14,5.73,0.00,22.28,23.29,26.75,5.98,30.46,999.04,2055.01,1896.29,2075.01,2213.82,350.21,319.33,34.93,0000 0000 0000 0000 000000
2013-11-30 00:54:44,0.17,5.73,0.00,22.28,23.29,26.75,6.05,30.58,999.04,2055.02,1896.12,2075.00,2213.49,350.47,319.81,34.94,0000 0000 0000 0000 000000
2013-11-30 00:55:45,0.15,5.73,0.00,22.29,23.29,26.73,5.83,30.50,999.03,2055.03,1896.04,2074.98,2213.27,350.12,319.23,34.94,0000 0000 0000 0000 000000
2013-11-30 00:56:45,0.10,5.73,0.00,22.27,23.29,26.73,5.92,30.58,999.02,2055.03,1896.01,2074.92,2213.10,349.74,318.91,34.95,0000 0000 0000 0000 000000
2013-11-30 00:57:45,0.07,5.73,0.00,22.30,23.29,26.73,6.07,30.67,999.02,2055.03,1895.99,2074.77,2213.04,350.69,319.61,34.96,0000 0000 0000 0000 000000
2013-11-30 00:58:45,0.09,5.74,0.00,22.31,23.29,26.73,5.92,30.50,999.02,2055.02,1895.94,2074.47,2213.01,350.21,319.50,34.96,0000 0000 0000 0000 000000
2013-11-30 00:59:46,0.17,5.74,0.00,22.28,23.29,26.75,5.83,30.63,999.04,2055.03,1895.63,2074.21,2212.99,350.06,318.96,34.97,0000 0000 0000 0000 000000
2013-11-30 01:00:46,0.21,5.74,0.00,22.22,23.29,26.76,5.89,30.50,999.02,2055.01,1895.31,2074.09,2212.99,350.16,319.28,34.97,0000 0000 0000 0000 000000
2013-11-30 01:01:46,0.21,2.87,0.00,22.21,23.31,26.73,2.50,13.33,999.02,2057.01,2732.75,2725.34,2939.99,146.96,133.94,0.00,0000 0000 0000 0000 000002
2013-11-30 01:02:46,0.21,0.00,0.00,22.14,23.32,26.75,5.88,29.71,999.03,2059.07,3568.12,3375.80,3666.70,349.97,319.26,0.00,0000 0000 0000 0000 000002
2013-11-30 01:03:46,0.21,0.00,0.00,22.13,23.32,26.74,5.92,29.67,999.02,2059.10,3566.32,3375.25,3666.27,350.20,319.48,0.01,0000 0000 0000 0000 000002
2013-11-30 01:04:47,0.21,0.00,0.00,22.15,23.32,26.74,5.77,29.71,999.03,2059.11,3565.30,3374.80,3666.09,349.83,319.44,0.01,0000 0000 0000 0000 000002
2013-11-30 01:05:47,0.21,0.00,0.00,22.19,23.32,26.76,5.89,29.54,999.03,2059.11,3564.50,3374.33,3665.83,349.46,319.10,0.00,0000 0000 0000 0000 000000
2013-11-30 01:06:47,0.21,0.00,0.00,22.25,23.30,26.75,5.97,29.67,999.01,2059.10,3564.08,3374.12,3665.36,350.25,319.40,0.01,0000 0000 0000 0000 000000
2013-11-30 01:07:47,0.21,0.00,0.00,22.23,23.30,26.76,5.95,29.54,998.99,2059.05,3563.45,3374.04,3665.13,349.45,318.72,0.01,0000 0000 0000 0000 000000
2013-11-30 01:08:48,0.21,0.00,0.00,22.23,23.30,26.75,5.89,29.58,998.94,2059.07,3563.15,3373.98,3665.01,350.28,319.41,0.02,0000 0000 0000 0000 000000
2013-11-30 01:09:48,0.20,0.00,0.00,22.30,23.30,26.77,6.00,29.54,998.93,2059.07,3562.64,3373.57,3664.70,350.73,319.76,0.02,0000 0000 0000 0000 000000
2013-11-30 01:10:48,0.20,0.00,0.00,22.35,23.30,26.77,5.83,29.46,998.94,2059.07,3562.22,3373.21,3664.27,349.90,318.94,0.03,0000 0000 0000 0000 000000
2013-11-30 01:11:49,0.20,0.00,0.00,22.33,23.30,26.75,5.80,29.46,998.90,2059.04,3561.90,3373.07,3664.09,349.99,319.07,0.04,0000 0000 0000 0000 000000
2013-11-30 01:12:49,0.19,0.00,0.00,22.37,23.30,26.74,5.78,29.17,998.89,2059.03,3561.40,3373.00,3663.97,349.92,319.11,0.04,0000 0000 0000 0000 000000
2013-11-30 01:13:49,0.19,0.00,0.00,22.36,23.30,26.75,5.81,29.58,998.85,2059.03,3561.14,3372.68,3663.49,350.01,319.00,0.05,0000 0000 0000 0000 000000
2013-11-30 01:14:49,0.19,0.00,0.00,22.28,23.30,26.73,5.88,29.50,998.82,2059.01,3560.64,3372.26,3663.19,350.45,319.40,0.05,0000 0000 0000 0000 000000
2013-11-30 01:15:49,0.19,0.00,0.00,22.25,23.30,26.74,5.85,29.42,998.84,2059.04,3560.25,3372.09,3663.07,349.67,318.98,0.06,0000 0000 0000 0000 000000
2013-11-30 01:16:50,0.18,0.00,0.00,22.27,23.30,26.74,5.97,29.67,998.76,2059.05,3560.08,3372.03,3662.99,350.56,319.57,0.07,0000 0000 0000 0000 000000
2013-11-30 01:17:50,0.17,0.00,0.00,22.24,23.30,26.73,5.88,29.54,998.67,2059.05,3559.71,3371.97,3662.66,350.52,319.64,0.07,0000 0000 0000 0000 000000
2013-11-30 01:18:50,0.17,0.00,0.00,22.28,23.30,26.74,5.75,29.50,998.62,2059.05,3559.30,3371.67,3662.28,349.77,318.49,0.08,0000 0000 0000 0000 000000
2013-11-30 01:19:51,0.17,0.01,0.00,22.28,23.30,26.75,5.97,29.42,998.60,2059.03,3559.09,3371.31,3662.10,350.95,319.86,0.08,0000 0000 0000 0000 000000
2013-11-30 01:20:51,0.16,0.01,0.00,22.22,23.30,26.75,6.05,29.54,998.59,2059.06,3558.83,3371.12,3662.03,351.17,320.13,0.09,0000 0000 0000 0000 000000
2013-11-30 01:21:51,0.16,0.01,0.00,22.28,23.30,26.76,5.75,29.58,998.57,2059.07,3558.37,3371.04,3661.93,349.10,318.17,0.09,0000 0000 0000 0000 000000
2013-11-30 01:22:51,0.15,0.01,0.00,22.29,23.29,26.74,5.87,29.38,998.58,2059.04,3558.13,3370.99,3661.49,349.73,318.74,0.10,0000 0000 0000 0000 000000
2013-11-30 01:23:51,0.14,0.01,0.00,22.28,23.29,26.77,5.83,29.46,998.59,2059.04,3557.93,3370.86,3661.18,349.49,318.53,0.11,0000 0000 0000 0000 000000
2013-11-30 01:24:52,0.14,0.01,0.00,22.30,23.29,26.80,5.77,29.42,998.59,2059.09,3557.43,3370.46,3661.06,349.71,318.68,0.11,0000 0000 0000 0000 000000
2013-11-30 01:25:52,0.15,0.01,0.00,22.29,23.29,26.76,5.89,29.46,998.57,2059.07,3557.16,3370.18,3660.90,350.17,319.18,0.12,0000 0000 0000 0000 000000
2013-11-30 01:26:52,0.13,0.01,0.00,22.29,23.29,26.75,5.84,29.42,998.58,2059.05,3556.99,3370.06,3660.39,349.39,318.43,0.12,0000 0000 0000 0000 000000
2013-11-30 01:27:52,0.12,0.01,0.00,22.26,23.29,26.72,5.88,29.50,998.56,2059.02,3556.52,3369.99,3660.15,349.93,318.95,0.13,0000 0000 0000 0000 000000
2013-11-30 01:28:53,0.12,0.01,0.00,22.21,23.29,26.72,6.05,29.58,998.56,2059.03,3556.19,3369.79,3660.05,350.79,319.53,0.14,0000 0000 0000 0000 000000
2013-11-30 01:29:53,0.11,0.01,0.00,22.20,23.29,26.74,5.90,29.38,998.56,2059.03,3556.03,3369.33,3659.92,349.66,318.77,0.14,0000 0000 0000 0000 000000
2013-11-30 01:30:53,0.12,0.01,0.00,22.22,23.29,26.75,5.87,29.63,998.55,2059.06,3555.58,3369.12,3659.44,350.40,319.42,0.15,0000 0000 0000 0000 000000
2013-11-30 01:31:53,0.14,0.01,0.00,22.24,23.29,26.77,5.73,29.38,998.55,2059.06,3555.22,3369.04,3659.16,349.80,318.84,0.15,0000 0000 0000 0000 000000
2013-11-30 01:32:53,0.11,0.01,0.00,22.19,23.29,26.74,5.76,29.33,998.55,2059.07,3554.96,3368.96,3659.05,349.54,318.66,0.16,0000 0000 0000 0000 000000
2013-11-30 01:33:54,0.09,0.01,0.00,22.20,23.29,26.77,5.92,29.42,998.55,2059.05,3554.45,3368.70,3658.92,349.94,319.02,0.16,0000 0000 0000 0000 000000
2013-11-30 01:34:54,0.13,0.01,0.00,22.25,23.29,26.77,5.96,29.46,998.55,2059.09,3554.15,3368.28,3658.45,350.15,319.31,0.17,0000 0000 0000 0000 000000
2013-11-30 01:35:54,0.16,0.02,0.00,22.30,23.29,26.74,5.74,29.29,998.55,2059.09,3553.95,3368.10,3658.17,349.79,318.71,0.18,0000 0000 0000 0000 000000
2013-11-30 01:36:54,0.11,0.02,0.00,22.32,23.29,26.73,5.85,29.50,998.55,2059.09,3553.41,3368.00,3658.04,349.77,318.35,0.18,0000 0000 0000 0000 000000
2013-11-30 01:37:54,0.10,0.02,0.00,22.37,23.29,26.72,5.90,29.58,998.55,2059.08,3553.08,3367.68,3657.61,350.37,319.42,0.19,0000 0000 0000 0000 000000
2013-11-30 01:38:55,0.18,0.02,0.00,22.36,23.29,26.74,5.82,29.50,998.55,2059.07,3552.55,3367.26,3657.24,350.25,318.69,0.19,0000 0000 0000 0000 000000
2013-11-30 01:39:55,0.16,0.02,0.00,22.40,23.29,26.73,5.83,29.58,998.55,2059.05,3552.19,3367.10,3657.08,349.58,318.72,0.20,0000 0000 0000 0000 000000
2013-11-30 01:40:55,0.07,0.02,0.00,22.41,23.29,26.78,6.03,29.58,998.55,2059.04,3551.75,3366.94,3656.77,350.55,319.13,0.21,0000 0000 0000 0000 000000
2013-11-30 01:41:55,0.16,0.02,0.00,22.34,23.29,26.77,6.00,29.63,998.55,2059.04,3551.30,3366.49,3656.30,350.65,319.35,0.21,0000 0000 0000 0000 000000
2013-11-30 01:42:56,0.18,0.02,0.00,22.35,23.29,26.75,5.90,29.63,998.55,2059.05,3550.87,3366.17,3656.11,349.98,318.89,0.22,0000 0000 0000 0000 000000
2013-11-30 01:43:56,0.15,0.02,0.00,22.27,23.29,26.73,5.92,29.67,998.55,2059.05,3550.32,3365.91,3655.87,350.45,319.40,0.22,0000 0000 0000 0000 000000
2013-11-30 01:44:56,0.17,0.02,0.00,22.23,23.29,26.74,5.72,29.38,998.55,2059.06,3549.84,3365.41,3655.35,349.51,318.59,0.23,0000 0000 0000 0000 000000
2013-11-30 01:45:56,0.20,0.02,0.00,22.26,23.29,26.73,5.97,29.58,998.55,2059.04,3549.32,3365.16,3655.12,350.32,319.30,0.24,0000 0000 0000 0000 000000
2013-11-30 01:46:57,0.12,0.03,0.00,22.27,23.29,26.75,5.83,29.58,998.55,2059.02,3549.01,3365.05,3654.89,349.57,319.36,0.24,0000 0000 0000 0000 000000
2013-11-30 01:47:57,0.08,0.03,0.00,22.28,23.29,26.75,5.98,29.75,998.55,2059.02,3548.51,3364.88,3654.39,350.94,319.83,0.25,0000 0000 0000 0000 000000
2013-11-30 01:48:57,0.15,0.03,0.00,22.25,23.29,26.76,5.83,29.46,998.55,2059.05,3548.17,3364.45,3654.14,349.67,318.58,0.25,0000 0000 0000 0000 000000
2013-11-30 01:49:57,0.17,0.03,0.00,22.25,23.29,26.75,5.89,29.42,998.55,2059.04,3547.68,3364.18,3654.02,350.19,319.19,0.26,0000 0000 0000 0000 000000
2013-11-30 01:50:58,0.14,0.03,0.00,22.25,23.29,26.74,5.83,29.46,998.55,2059.02,3547.25,3364.05,3653.63,349.73,318.78,0.26,0000 0000 0000 0000 000000
2013-11-30 01:51:58,0.11,0.03,0.00,22.28,23.29,26.73,5.72,29.33,998.55,2059.02,3547.08,3363.98,3653.26,349.45,318.49,0.27,0000 0000 0000 0000 000000
2013-11-30 01:52:58,0.07,0.03,0.00,22.34,23.29,26.72,5.71,29.50,998.55,2059.02,3546.70,3363.67,3653.10,348.67,317.70,0.28,0000 0000 0000 0000 000000
2013-11-30 01:53:58,0.17,0.03,0.00,22.34,23.29,26.72,5.82,29.50,998.55,2059.01,3546.26,3363.29,3653.02,350.04,318.95,0.28,0000 0000 0000 0000 000000
2013-11-30 01:54:59,0.11,0.03,0.00,22.34,23.29,26.74,5.77,29.29,998.55,2059.04,3546.07,3363.10,3652.79,349.39,318.65,0.29,0000 0000 0000 0000 000000
2013-11-30 01:55:59,0.12,0.03,0.00,22.33,23.29,26.75,5.77,29.50,998.55,2059.04,3545.62,3363.02,3652.35,349.25,318.24,0.29,0000 0000 0000 0000 000000
2013-11-30 01:56:59,0.11,0.03,0.00,22.32,23.29,26.73,6.05,29.33,998.55,2059.01,3545.23,3362.81,3652.13,350.87,319.87,0.30,0000 0000 0000 0000 000000
2013-11-30 01:57:59,0.10,0.03,0.00,22.29,23.29,26.76,5.79,29.46,998.55,2059.03,3545.02,3362.37,3652.02,350.32,319.27,0.31,0000 0000 0000 0000 000000
2013-11-30 01:59:00,0.13,0.03,0.00,22.34,23.29,26.76,5.67,29.42,998.55,2059.07,3544.50,3362.13,3651.59,350.37,319.26,0.31,0000 0000 0000 0000 000000
2013-11-30 02:00:00,0.19,0.04,0.00,22.32,23.29,26.76,5.73,29.63,998.55,2059.04,3544.17,3362.03,3651.22,349.38,318.05,0.32,0000 0000 0000 0000 000000
2013-11-30 02:01:00,0.07,0.04,0.00,22.29,23.29,26.77,5.68,29.33,998.55,2059.06,3543.78,3361.77,3651.06,349.32,318.35,0.32,0000 0000 0000 0000 000000
2013-11-30 02:02:00,0.18,0.04,0.00,22.25,23.29,26.78,5.92,29.38,998.55,2059.06,3543.33,3361.34,3650.85,350.09,318.67,0.33,0000 0000 0000 0000 000000
2013-11-30 02:03:01,0.16,0.04,0.00,22.22,23.29,26.78,5.95,29.58,998.55,2059.05,3543.12,3361.12,3650.40,350.62,319.13,0.33,0000 0000 0000 0000 000000
2013-11-30 02:04:01,0.10,0.04,0.00,22.28,23.29,26.73,5.88,29.46,998.54,2059.02,3542.70,3361.04,3650.14,349.95,318.95,0.34,0000 0000 0000 0000 000000
2013-11-30 02:05:01,0.08,0.04,0.00,22.30,23.29,26.77,6.08,29.63,998.55,2059.02,3542.26,3360.91,3650.04,351.17,320.02,0.35,0000 0000 0000 0000 000000
2013-11-30 02:06:01,0.09,0.04,0.00,22.35,23.29,26.76,5.77,29.38,998.54,2059.03,3542.08,3360.55,3649.91,349.75,318.69,0.35,0000 0000 0000 0000 000000
2013-11-30 02:07:01,0.14,0.04,0.00,22.35,23.29,26.76,5.83,29.13,998.55,2059.03,3541.76,3360.20,3649.50,349.11,318.09,0.36,0000 0000 0000 0000 000000
2013-11-30 02:08:02,0.17,0.04,0.00,22.34,23.29,26.75,5.73,29.38,998.55,2059.03,3541.30,3360.07,3649.18,350.14,319.05,0.36,0000 0000 0000 0000 000000
2013-11-30 02:09:02,0.10,0.04,0.00,22.32,23.29,26.73,5.87,29.50,998.55,2059.05,3541.10,3360.01,3649.06,350.09,319.02,0.37,0000 0000 0000 0000 000000
2013-11-30 02:10:02,0.05,0.04,0.00,22.34,23.29,26.76,5.72,29.42,998.53,2059.05,3540.73,3359.78,3648.86,348.93,317.95,0.38,0000 0000 0000 0000 000000
2013-11-30 02:11:02,0.16,0.04,0.00,22.28,23.29,26.78,5.93,29.50,998.54,2059.04,3540.27,3359.33,3648.39,350.32,319.27,0.38,0000 0000 0000 0000 000000
2013-11-30 02:12:03,0.17,0.04,0.00,22.28,23.29,26.77,5.68,29.50,998.47,2059.02,3540.06,3359.12,3648.15,349.13,318.16,0.39,0000 0000 0000 0000 000000
2013-11-30 02:13:03,0.06,0.04,0.00,22.24,23.29,26.76,5.84,29.42,998.47,2059.01,3539.62,3359.03,3648.04,350.29,319.26,0.39,0000 0000 0000 0000 000000
2013-11-30 02:14:03,0.09,0.05,0.00,22.25,23.29,26.77,5.94,29.33,998.49,2059.03,3539.24,3358.94,3647.80,349.77,318.78,0.40,0000 0000 0000 0000 000000
2013-11-30 02:15:03,0.11,0.05,0.00,22.22,23.29,26.75,5.68,29.33,998.44,2059.04,3539.08,3358.62,3647.40,349.32,318.39,0.40,0000 0000 0000 0000 000000
2013-11-30 02:16:03,0.14,0.05,0.00,22.19,23.29,26.78,5.77,29.58,998.45,2059.05,3538.73,3358.25,3647.15,348.61,317.78,0.41,0000 0000 0000 0000 000000
2013-11-30 02:17:03,0.17,0.05,0.00,22.24,23.29,26.78,5.84,29.29,998.48,2059.02,3538.28,3358.08,3647.05,350.01,319.21,0.42,0000 0000 0000 0000 000000
2013-11-30 02:18:04,0.06,0.05,0.00,22.27,23.29,26.77,5.93,29.46,998.42,2059.01,3538.05,3357.95,3646.98,349.81,318.70,0.42,0000 0000 0000 0000 000000
2013-11-30 02:19:04,0.04,0.05,0.00,22.31,23.30,26.76,5.86,29.46,998.46,2059.00,3537.56,3357.61,3646.64,350.52,319.59,0.43,0000 0000 0000 0000 000000
2013-11-30 02:20:04,0.22,0.05,0.00,22.31,23.29,26.76,5.75,29.42,998.50,2059.02,3537.21,3357.25,3646.27,349.66,318.42,0.43,0000 0000 0000 0000 000000
2013-11-30 02:21:04,0.15,0.05,0.00,22.34,23.29,26.76,6.11,29.67,998.46,2059.01,3537.06,3357.10,3646.10,350.86,319.71,0.44,0000 0000 0000 0000 000000
2013-11-30 02:22:04,0.04,0.05,0.00,22.33,23.29,26.77,5.84,29.38,998.48,2059.02,3536.66,3357.03,3646.01,349.62,318.55,0.45,0000 0000 0000 0000 000000
2013-11-30 02:23:05,0.09,0.05,0.00,22.35,23.29,26.79,5.60,29.42,998.49,2059.01,3536.24,3356.92,3645.73,350.14,319.61,0.45,0000 0000 0000 0000 000000
2013-11-30 02:24:05,0.10,0.05,0.00,22.33,23.29,26.76,5.86,29.33,998.42,2059.02,3536.07,3356.47,3645.30,350.20,319.07,0.46,0000 0000 0000 0000 000000
2013-11-30 02:25:05,0.18,0.05,0.00,22.35,23.29,26.75,5.94,29.50,998.32,2059.01,3535.76,3356.19,3645.11,350.29,318.92,0.46,0000 0000 0000 0000 000000
2013-11-30 02:26:05,0.11,0.05,0.00,22.30,23.29,26.75,5.83,29.38,998.33,2059.00,3535.30,3356.07,3645.01,350.37,319.24,0.47,0000 0000 0000 0000 000000
2013-11-30 02:27:06,0.08,0.05,0.00,22.30,23.29,26.78,5.88,29.54,998.28,2059.03,3535.11,3356.02,3644.90,349.51,318.59,0.48,0000 0000 0000 0000 000000
2013-11-30 02:28:06,0.06,0.05,0.00,22.32,23.29,26.79,5.94,29.46,998.18,2059.03,3534.78,3355.90,3644.47,350.48,319.26,0.48,0000 0000 0000 0000 000000
2013-11-30 02:29:06,0.11,0.06,0.00,22.32,23.30,26.79,5.91,29.46,998.16,2059.03,3534.35,3355.47,3644.17,349.02,317.92,0.49,0000 0000 0000 0000 000000
2013-11-30 02:30:06,0.19,0.06,0.00,22.29,23.30,26.79,5.81,29.42,998.14,2059.04,3534.11,3355.17,3644.05,350.00,318.85,0.49,0000 0000 0000 0000 000000
2013-11-30 02:31:06,0.10,0.06,0.00,22.29,23.29,26.78,5.93,29.50,998.15,2059.02,3533.77,3355.06,3643.96,350.85,319.62,0.50,0000 0000 0000 0000 000000
2013-11-30 02:32:07,0.06,0.06,0.00,22.30,23.30,26.79,5.74,29.46,998.11,2059.02,3533.33,3355.00,3643.69,350.42,319.21,0.50,0000 0000 0000 0000 000000
2013-11-30 02:33:07,0.11,0.06,0.00,22.29,23.29,26.76,5.93,29.38,998.10,2059.02,3533.12,3354.67,3643.28,350.45,319.23,0.51,0000 0000 0000 0000 000000
2013-11-30 02:34:07,0.15,0.06,0.00,22.27,23.29,26.77,5.98,29.38,998.08,2059.01,3532.89,3354.32,3643.10,350.17,319.00,0.52,0000 0000 0000 0000 000000
2013-11-30 02:35:07,0.11,0.06,0.00,22.29,23.30,26.77,5.88,29.46,998.09,2059.01,3532.43,3354.11,3643.01,349.67,318.53,0.52,0000 0000 0000 0000 000000
2013-11-30 02:36:07,0.10,0.06,0.00,22.30,23.30,26.76,5.83,29.38,998.16,2059.02,3532.15,3354.03,3642.84,350.11,318.83,0.53,0000 0000 0000 0000 000000
2013-11-30 02:37:07,0.08,0.06,0.00,22.30,23.29,26.80,5.94,29.50,998.16,2059.02,3532.01,3353.97,3642.43,350.59,319.38,0.53,0000 0000 0000 0000 000000
2013-11-30 02:38:08,0.08,0.06,0.00,22.35,23.30,26.78,5.62,29.50,998.14,2059.03,3531.60,3353.78,3642.16,350.32,319.06,0.54,0000 0000 0000 0000 000000